EHI
0 0 0 0 0 0 0 0 0 0 0 0 0 0 0 0 0 0 0 0 0 0 0 0 0 1 2 2 1 0 0 0 0 0 0 0 0 0 0 0 0 0 0 0
0 0 0 0 0 0 0 0 0 0 0 0 0 0 0 0 0 0 0 0 0 0 0 0 1 2 3 3 2 1 0 0 0 0 0 0 0 0 0 0 0 0 0 0
0 0 0 0 0 0 0 0 0 0 0 0 0 0 0 0 0 0 0 0 0 0 0 0 1 2 3 3 3 1 0 0 0 0 0 0 0 0 0 0 0 0 0 0
0 0 0 0 0 0 0 0 0 0 0 0 0 0 0 0 0 0 0 0 0 0 0 0 1 2 3 3 3 3 2 1 1 0 0 0 0 0 0 0 0 0 0 0
0 0 0 0 0 0 0 0 0 0 0 0 0 0 0 0 0 0 0 0 0 0 0 0 0 1 2 2 2 4 5 5 3 1 0 0 0 0 0 0 0 0 0 0
0 0 0 0 0 0 0 0 0 0 0 0 0 0 0 0 0 0 0 0 0 0 0 0 0 1 2 1 1 4 6 7 6 3 0 0 0 0 0 0 0 0 0 0
0 0 0 0 0 0 0 0 0 0 0 0 0 0 0 0 0 0 0 0 0 0 0 0 1 2 3 1 1 3 5 7 8 5 1 0 0 0 0 0 0 0 0 0
0 0 0 0 0 0 0 0 0 0 0 0 0 0 0 0 0 0 0 0 0 0 0 0 0 1 2 1 1 1 3 6 7 5 2 0 0 0 0 0 0 0 0 0
0 0 0 0 0 0 0 0 0 0 0 0 0 0 0 0 0 0 0 0 0 0 0 0 0 0 1 1 1 0 1 3 3 2 1 0 0 0 0 0 0 0 0 0
0 0 0 0 0 0 0 0 0 0 0 0 0 0 0 0 0 0 0 0 0 0 0 0 0 0 1 2 2 1 0 1 1 1 1 1 0 0 1 1 0 1 1 0
0 0 0 0 0 0 0 0 0 0 0 0 0 0 0 0 0 0 0 0 0 0 0 0 0 0 1 2 2 2 1 0 0 1 1 1 1 1 2 2 2 2 2 1
0 0 0 0 0 0 0 0 0 0 0 0 0 0 0 0 0 0 0 0 0 0 0 0 0 0 0 1 1 2 2 1 1 1 1 2 2 2 3 3 3 3 3 2
0 0 0 0 0 0 0 0 0 0 0 0 0 0 0 0 0 0 0 0 0 0 0 0 0 0 0 0 0 1 2 2 2 1 2 3 3 3 3 3 3 3 3 3
0 0 0 0 0 0 0 0 0 0 0 0 0 0 0 0 0 0 0 0 0 0 0 0 0 0 0 0 0 0 1 1 1 1 2 3 3 3 3 3 3 3 3 3
0 0 0 0 0 0 0 0 0 0 0 0 0 0 0 0 0 0 0 0 0 0 0 0 0 0 0 0 0 0 0 0 0 1 2 3 3 3 3 3 3 3 3 3
0 0 0 0 0 0 0 0 0 0 0 0 0 0 0 0 0 0 0 0 0 0 0 0 0 0 0 0 0 0 0 0 0 1 3 3 3 3 3 3 3 3 3 2
0 0 0 0 0 0 0 0 0 0 0 0 0 0 0 0 0 0 0 0 0 0 0 0 0 0 0 0 0 0 0 0 1 2 2 3 3 3 2 1 1 2 2 1
0 0 0 0 0 0 0 0 0 0 0 0 0 0 0 0 0 0 0 0 0 0 0 0 0 0 0 0 0 0 0 1 2 2 1 1 2 1 1 0 0 1 1 0
0 0 0 0 0 0 0 0 0 0 0 0 0 0 0 0 0 0 0 0 0 0 0 0 0 0 0 0 0 0 0 1 2 2 1 0 0 0 0 0 0 0 0 0
0 0 0 0 0 0 0 0 0 0 0 0 0 0 0 0 0 0 0 0 0 0 0 0 0 0 0 0 0 0 0 0 1 2 1 0 0 0 0 0 0 0 0 0
0 0 0 0 0 0 0 0 0 0 0 0 0 0 0 0 0 0 0 0 0 0 0 0 0 0 0 0 0 0 0 0 0 1 1 1 1 0 0 0 0 0 0 0
0 0 0 0 0 0 0 0 0 0 0 0 0 0 0 0 0 0 0 0 0 0 0 0 0 0 0 0 0 0 0 0 0 0 0 1 2 1 0 0 0 0 0 0
0 0 0 0 0 0 0 0 0 0 0 0 0 0 0 0 0 0 0 0 0 0 0 0 0 0 0 0 0 0 0 0 0 0 0 1 1 1 0 0 0 0 0 0
0 0 0 0 0 0 0 0 0 0 0 0 0 0 0 0 0 0 0 0 0 0 0 0 0 0 0 0 0 0 0 0 0 0 0 0 0 0 0 0 0 0 0 0
0 0 0 0 0 0 0 0 0 0 0 0 0 0 0 0 0 0 0 0 0 0 0 0 0 0 0 0 0 0 0 0 0 0 0 0 0 0 0 0 0 0 0 0
0 0 0 0 0 0 0 0 0 0 0 0 0 0 0 0 0 0 0 0 0 0 0 0 0 0 0 0 0 0 0 0 0 0 0 0 0 0 0 0 0 0 0 0
Wind_Speed
5 7 7 6 6 4 4 5 5 3 2 6 7 7 6 6 8 8 8 9 9 9 8 7 7 7 7 6 5 5 5 4 3 3 2 2 2 1 1 1 2 2 1 1
7 8 5 3 5 6 7 7 5 3 3 5 6 8 7 7 9 8 8 9 9 9 8 8 8 8 8 7 7 6 5 5 5 3 2 1 1 1 1 1 2 2 2 2
8 2 4 6 7 8 8 8 6 4 3 5 7 8 7 6 7 7 8 8 8 8 9 10 9 9 8 8 7 5 6 5 5 4 3 2 2 2 2 1 1 1 1 2
6 3 6 7 7 8 7 5 6 5 7 4 5 6 4 5 6 7 8 8 8 9 9 9 9 9 9 8 7 7 7 6 6 5 4 4 2 2 1 1 1 1 1 1
5 5 7 8 6 7 3 2 5 6 7 7 6 8 3 5 6 6 7 8 8 8 9 9 9 9 9 8 7 7 7 6 6 5 5 5 3 2 1 2 2 2 1 1
4 3 4 4 3 5 5 5 5 6 7 8 5 7 4 3 3 3 4 6 7 7 8 8 7 8 8 7 7 7 7 7 6 6 6 5 4 3 2 2 2 2 1 1
7 6 5 4 6 7 8 7 5 6 6 5 2 6 4 1 1 2 2 3 5 6 7 7 7 8 8 8 8 8 8 8 7 7 6 5 5 4 3 3 3 2 2 1
7 7 6 6 7 6 8 9 6 4 4 2 4 6 1 2 1 2 2 2 4 5 6 6 7 7 7 8 9 9 9 8 8 7 6 5 5 3 2 3 3 2 2 1
5 4 5 4 4 6 7 8 6 7 6 6 5 3 2 2 1 1 2 2 3 5 6 6 6 6 6 7 8 9 8 8 8 7 7 5 5 4 4 4 3 2 2 2
5 5 4 5 6 3 4 4 5 7 6 7 5 6 3 2 1 1 1 2 2 3 5 6 6 6 5 5 6 8 8 8 7 7 6 5 5 5 4 3 3 3 3 3
6 7 5 6 7 7 7 7 7 6 5 6 5 2 1 1 1 1 1 1 1 2 4 5 5 5 5 4 5 7 8 8 7 7 7 6 5 5 5 4 4 3 3 4
5 6 6 6 3 3 7 7 8 7 7 7 7 2 2 1 1 2 2 1 1 1 2 3 4 4 4 4 5 5 6 7 7 7 7 6 5 5 5 4 4 4 4 4
4 6 7 7 7 7 7 7 8 8 7 8 9 4 4 2 1 1 2 2 1 1 2 3 3 3 4 4 4 5 6 6 6 7 6 6 6 5 5 5 5 4 4 4
5 7 8 8 4 3 7 8 9 10 9 10 11 9 5 4 3 3 3 2 1 1 1 2 2 3 3 4 4 5 5 6 6 6 6 6 6 6 5 5 4 5 4 4
5 7 7 7 6 6 8 9 10 12 12 12 10 9 7 6 5 4 3 1 1 1 1 1 2 2 3 3 4 4 5 5 6 6 6 6 5 5 4 4 4 4 4 4
4 6 6 8 6 7 10 11 11 12 12 13 12 10 6 5 4 3 3 2 2 2 2 1 1 2 3 3 3 3 4 5 5 6 6 5 5 5 4 4 4 4 4 4
4 5 6 7 5 7 11 9 10 9 9 10 10 7 4 4 3 3 3 2 2 2 2 2 2 1 2 3 3 4 4 5 5 5 5 4 5 4 5 4 4 4 4 4
6 6 5 6 6 10 2 1 4 6 7 8 7 6 5 4 3 3 2 2 2 2 2 2 1 1 1 2 3 3 4 4 5 4 4 4 4 4 4 4 4 4 4 3
6 6 5 5 7 8 3 3 4 6 6 5 6 6 4 2 3 3 0 2 3 2 2 1 1 1 1 2 3 4 4 4 4 3 3 4 4 4 4 4 4 4 4 4
4 6 6 6 7 7 1 2 1 4 6 1 3 3 2 3 5 1 3 2 2 2 2 1 0 1 1 2 3 4 4 4 3 3 3 3 3 4 4 4 4 4 4 4
6 6 8 9 9 6 0 2 4 7 1 2 1 2 2 3 4 3 3 2 2 2 2 1 1 1 1 2 2 4 4 3 2 3 3 3 3 3 3 3 4 4 3 4
7 6 8 7 9 6 3 5 5 2 3 1 1 2 3 3 2 1 1 2 1 2 2 1 1 1 1 2 2 2 3 2 2 2 3 3 3 3 3 3 4 4 4 4
6 5 4 5 4 3 2 2 2 3 3 3 3 3 2 2 2 2 1 1 0 1 1 1 1 1 1 1 1 1 1 2 2 3 3 3 3 3 3 3 4 4 4 3
5 3 5 6 6 4 3 4 4 4 4 4 3 3 3 3 3 3 2 1 1 1 1 1 1 1 1 0 0 1 0 2 3 3 3 2 2 2 2 2 3 3 3 3
5 5 7 9 7 5 5 5 5 4 4 3 3 3 3 3 3 3 2 2 1 1 1 1 1 1 0 0 0 0 1 2 3 3 2 2 2 2 2 2 1 2 2 2
7 8 8 8 6 6 6 4 4 5 5 4 4 3 3 3 3 3 2 2 1 1 1 1 1 1 0 0 0 0 1 2 3 3 2 2 1 1 1 1 1 1 1 0
Wind_Direction
189 205 202 199 215 245 225 230 230 220 185 226 242 255 241 213 219 224 218 211 205 201 192 186 190 192 189 188 191 180 177 170 167 165 167 157 138 123 100 74 66 68 59 54
192 209 209 207 205 218 224 233 234 206 200 246 260 261 251 226 223 225 223 213 208 204 194 189 191 194 197 191 192 187 186 177 176 176 175 166 142 134 102 89 73 65 62 51
216 166 179 200 202 216 227 241 248 242 211 231 265 251 227 212 217 219 225 224 216 209 208 196 194 197 197 198 195 189 188 181 177 172 161 148 145 161 148 137 114 68 58 63
224 195 196 209 213 225 228 231 243 234 240 237 249 273 225 205 211 215 215 214 215 209 209 205 199 199 199 202 194 193 188 184 178 178 181 181 190 191 190 175 143 141 109 84
200 192 203 215 216 222 227 200 222 233 249 257 236 262 237 190 217 213 208 206 208 207 207 204 204 202 200 198 194 193 188 186 180 183 185 200 199 203 180 170 163 171 145 123
225 199 227 224 198 202 172 175 183 217 240 247 238 251 254 198 221 211 199 204 206 203 201 203 200 199 199 194 191 193 192 190 186 188 192 200 199 198 185 190 184 189 172 175
205 195 195 207 187 179 205 220 221 216 219 236 176 244 259 57 301 270 254 219 202 196 195 195 194 193 195 195 193 193 194 194 192 195 200 202 203 205 198 198 199 204 194 190
215 199 184 202 219 209 212 232 249 260 253 239 196 240 228 79 313 266 259 229 197 187 188 189 191 195 196 198 197 198 198 197 194 198 204 206 200 207 206 206 207 212 207 197
230 202 154 187 218 228 209 223 258 273 271 266 238 222 231 169 203 210 203 196 198 189 188 191 189 191 197 199 201 202 200 198 197 198 199 201 202 202 206 209 204 208 202 189
249 237 175 168 182 190 254 214 215 237 253 252 245 241 233 173 194 187 199 205 197 191 188 189 189 191 195 197 198 198 199 196 195 195 194 191 199 200 205 204 199 200 197 190
239 237 196 189 212 210 190 202 223 236 253 267 262 236 64 244 237 249 254 241 206 194 193 188 186 189 192 189 191 194 195 192 190 193 191 192 195 197 201 203 201 200 198 195
228 246 230 217 200 254 238 229 226 240 237 249 272 272 113 238 279 274 291 298 235 199 194 190 185 185 186 189 190 192 195 193 189 192 192 193 195 199 203 208 204 201 202 203
207 234 232 211 192 192 215 220 230 246 256 247 252 250 133 187 250 264 287 305 251 206 184 181 177 179 186 189 189 191 193 193 189 189 193 192 195 201 206 210 208 206 205 206
246 239 246 256 267 230 221 217 220 231 245 250 250 260 249 246 261 277 284 288 274 217 182 185 183 182 185 192 189 191 192 189 186 186 192 198 199 199 202 204 203 204 206 210
246 248 244 255 261 247 246 242 230 236 250 260 265 264 274 277 280 280 280 277 264 218 199 200 199 189 187 189 187 188 189 186 184 185 191 198 198 192 191 194 197 198 203 211
243 251 248 239 235 244 248 246 242 242 250 255 261 267 289 289 278 270 274 264 254 244 223 218 215 206 199 191 184 181 182 181 183 187 190 189 192 187 188 194 193 187 193 201
219 239 248 251 241 247 245 242 235 234 239 246 254 267 271 265 261 264 279 269 269 270 257 230 218 216 200 186 181 182 181 176 179 182 184 187 190 190 190 192 190 190 196 200
224 224 243 257 243 244 259 131 227 234 243 243 256 269 272 281 294 285 302 301 299 302 288 262 239 212 188 167 169 176 175 173 175 177 174 175 185 187 189 190 191 198 201 205
228 222 228 241 251 260 237 207 220 233 244 240 248 259 266 276 261 228 347 328 320 319 311 285 248 211 170 150 161 167 172 173 176 176 183 181 180 186 190 194 201 205 202 204
201 222 232 231 248 256 233 129 221 242 241 193 242 253 247 225 255 287 43 4 355 3 15 52 126 155 139 125 156 168 174 178 185 187 192 190 183 188 197 201 206 207 206 209
191 201 221 234 247 260 332 145 191 226 276 85 242 259 242 250 312 11 15 9 15 27 45 75 109 123 115 125 153 172 172 180 190 190 185 184 186 191 198 204 206 204 208 212
226 219 219 225 237 246 133 173 215 309 16 341 282 268 260 285 327 342 356 3 26 46 66 89 99 90 107 134 159 177 178 180 178 179 179 184 191 190 192 198 203 202 204 211
232 245 251 239 258 14 155 228 303 317 293 292 280 279 264 253 263 280 284 292 61 68 72 81 94 99 101 130 191 198 185 179 179 177 182 188 194 196 199 201 199 198 202 215
226 242 246 251 253 255 255 262 270 277 287 302 298 281 256 247 248 253 254 241 193 126 99 104 125 124 90 51 288 260 211 191 195 193 190 191 199 198 200 207 209 207 208 215
245 221 241 252 259 261 249 250 262 270 277 281 287 274 260 256 249 251 251 237 206 157 140 151 174 182 111 44 334 307 238 216 210 209 203 198 200 204 208 210 239 236 231 246
229 231 242 256 264 264 270 268 264 262 262 264 264 262 257 246 235 236 243 239 220 187 166 177 194 205 211 246 257 248 234 230 219 213 207 200 201 210 216 214 214 54 231 206